CAPE
155 21 26 31 27 21 19 15 15 6 0 0 0 15 73 133 0 0 0 98 69 2 4 8 42 139 7 0 4 12 21 223 126 235 109 2249 2479 2331 2046 1969 2408 1324 1124 1305 1764 2096 2072 1845 1597 1558 1609 1638 1545 1440 1393 1296 1163 1073 858 667 752 672 629 535 422 410 338 421 285 505 551 480 383 226 100 122 103 56 22 99 172 31 21 34 44 58 49
23 38 44 29 32 34 38 24 20 12 10 9 1 0 0 85 114 29 142 138 167 94 13 5 4 121 77 70 3 0 0 47 253 745 395 251 1949 2470 2481 2354 2561 2081 1542 1487 1672 2058 2120 2074 1900 1748 1642 1565 1445 1392 1281 1065 866 901 937 528 662 641 527 646 573 391 424 475 411 501 476 398 326 147 85 144 199 184 206 248 192 366 295 200 274 143 22
6 5 18 27 30 41 25 17 7 4 0 5 2 0 1 10 11 328 309 183 70 153 120 64 215 261 16 104 4 11 181 113 99 38 18 72 158 768 2635 3226 2730 2592 2289 1846 1693 1918 2149 2015 1903 1842 1712 1590 1536 1550 1310 889 893 838 802 575 614 561 535 516 450 651 691 773 671 601 454 291 279 228 233 302 291 230 229 304 338 310 438 329 103 21 9
1 2 6 21 37 28 10 0 4 6 9 8 2 12 17 9 1 2 549 180 166 233 188 327 228 64 21 43 8 10 12 28 411 720 467 440 530 375 514 3023 2897 2519 2569 2612 2282 2017 2073 2206 2037 1725 1705 1660 1674 1458 1168 907 659 533 597 572 607 558 573 551 319 352 406 592 617 553 474 405 406 267 264 308 329 406 413 473 457 497 467 375 205 204 129
0 4 0 0 0 5 4 0 12 20 22 15 23 24 30 23 8 0 176 357 330 323 230 258 314 105 31 74 137 465 4 34 141 130 179 231 178 239 364 2065 2526 2689 2529 2644 2779 2520 2203 2163 2248 2066 1947 1970 1817 1552 1161 750 358 424 571 610 649 649 618 305 495 238 247 535 479 508 453 429 428 422 431 414 400 418 520 548 589 607 606 566 506 266 281
0 1 0 0 0 7 14 110 16 36 53 26 8 25 43 56 347 411 71 216 174 132 98 103 164 103 0 0 0 0 23 167 58 50 81 111 66 68 204 273 2185 2646 2638 2506 2508 2656 2444 2277 2182 2147 2092 1945 1834 1598 1215 982 609 471 558 503 540 432 284 361 786 532 567 584 535 547 530 584 533 542 528 475 448 520 555 635 655 635 599 417 126 87 27
2 129 173 14 4 28 81 9 10 6 16 0 1 10 63 27 124 262 266 278 57 26 26 200 166 96 55 33 153 38 140 254 318 412 394 367 366 365 213 113 100 1269 2607 2340 2246 2191 2648 2339 2052 1938 1875 1889 1751 1533 1328 1093 764 552 452 508 429 490 331 390 833 926 775 659 714 626 680 668 682 611 592 591 663 698 692 630 653 626 445 392 315 252 350
38 25 36 3 5 261 70 0 0 15 0 0 117 8 350 125 33 160 16 212 121 283 346 236 42 0 1 307 230 10 0 0 4 0 10 13 114 84 40 43 43 27 1937 2847 2718 2701 2568 2412 2088 1912 1759 1569 1452 1374 1270 1171 834 720 572 395 196 320 561 923 1146 926 855 770 765 755 751 720 673 640 624 637 638 674 833 877 816 696 545 595 518 244 219
13 12 14 1 555 7 42 56 108 11 3 156 290 22 92 78 36 42 208 169 279 238 155 342 145 11 0 0 3 0 4 25 18 0 0 0 0 80 661 480 686 1410 2706 3122 3168 2864 2490 2143 1950 1909 1712 1532 1405 1301 1222 1137 879 380 314 181 158 268 604 1238 1322 1018 850 809 754 729 677 689 654 671 675 660 672 982 1099 917 709 519 463 319 346 97 123
89 70 37 3 0 0 34 25 263 37 24 19 164 179 262 365 444 442 478 46 2 56 34 118 69 0 0 0 1 67 131 0 3 2 2 69 44 19 1818 1674 1690 2611 4530 3530 3325 2709 2639 2394 2040 1609 1582 1579 1492 1471 1327 1208 978 864 792 336 271 251 472 1231 1359 1252 1017 851 782 709 660 616 620 619 678 834 965 1264 920 665 536 507 508 482 402 140 192
0 13 0 2 3 175 296 389 106 163 97 120 410 112 167 150 116 494 42 208 25 122 22 64 57 0 13 40 0 1 0 0 0 19 15 177 981 1261 1320 1571 2294 2681 3094 3114 2625 2798 2578 1958 1692 1487 1428 1202 1163 1166 1122 703 952 892 632 265 332 219 607 1114 1389 1354 1172 965 829 698 572 508 488 512 548 717 960 1109 672 480 466 403 426 313 179 133 111
89 60 22 14 2 42 343 143 114 48 37 28 120 124 133 28 521 604 306 491 687 27 6 20 13 0 2 0 18 30 0 30 28 563 470 917 1358 1506 1258 1781 2103 2408 2681 2576 2749 2561 2468 2194 2007 1636 1004 930 1014 1314 1098 871 724 638 488 449 307 379 874 1183 1393 1430 1296 1083 907 768 552 413 428 447 533 624 579 784 653 561 337 339 521 218 175 145 2
21 18 14 25 17 269 467 19 42 12 46 52 37 36 535 291 818 119 61 143 15 31 20 26 233 112 86 65 1 0 88 312 179 692 625 456 68 70 1557 1933 2334 2288 2468 2313 2301 2123 2105 2152 2078 1878 1660 1508 1239 983 932 849 556 568 618 570 330 782 1145 1185 1281 1376 1329 1162 1033 844 616 516 486 707 618 445 336 279 217 220 393 596 543 476 348 340 216
2 0 0 3 12 1213 43 13 322 190 0 2 64 344 736 847 112 368 62 57 29 445 441 265 127 44 4 24 127 181 164 685 619 773 1639 1325 900 2018 1590 1557 1698 2049 2284 2562 2233 2065 1926 1698 1547 1802 1712 1005 690 404 99 0 287 354 408 699 1034 1027 1148 1003 1046 1274 1182 1062 909 720 670 633 572 496 550 419 258 274 284 422 552 507 458 544 551 604 423
18 5 26 25 0 678 530 4 347 647 854 646 480 792 364 408 209 326 246 485 484 366 38 417 338 256 226 342 482 385 152 738 1400 1861 2208 2790 2381 1703 1612 1734 2001 2132 2299 2227 1676 1522 1418 1324 1544 1573 1451 1070 622 282 141 299 591 932 473 560 740 909 1106 1136 1119 1128 1159 956 691 689 750 610 582 410 307 296 294 279 116 201 384 679 714 847 753 500 135
400 82 146 103 378 670 269 321 552 646 764 393 428 1138 325 249 247 299 38 341 537 456 492 455 26 443 78 386 296 164 76 552 1069 1643 2228 2496 2426 2314 2313 2424 2722 2833 2741 1748 1445 1335 1229 1428 1540 1497 1137 706 458 769 1329 1510 1449 1284 1073 1294 1554 1571 1734 1699 1506 1367 1203 1093 941 588 673 629 405 335 324 349 319 305 296 74 272 937 989 721 665 367 244
558 744 655 673 101 60 103 211 399 350 515 1092 719 64 46 35 79 121 84 347 21 479 34 27 208 125 180 198 38 185 1318 1974 1663 1379 1779 2322 2257 2152 2054 2113 2166 2072 1612 1203 867 1014 1111 1186 1456 1234 819 1100 1716 1470 1669 1760 1111 875 907 926 1017 1013 944 910 956 943 851 762 638 604 414 360 274 351 361 349 323 344 278 113 265 570 779 831 533 356 244
842 871 898 306 88 38 12 16 204 293 358 210 369 388 332 15 56 56 64 167 57 31 21 15 10 126 246 90 70 724 2057 1843 1573 1197 904 1500 1880 1850 1824 1904 1828 1702 1362 1039 781 723 845 752 1053 1065 1132 2037 1684 1952 1954 1595 1407 1317 1121 1173 1196 988 651 654 701 766 682 564 518 442 394 396 407 413 451 442 453 421 438 473 548 632 635 748 544 503 330
367 136 501 590 124 52 34 13 4 0 0 346 379 422 398 346 229 33 18 7 27 22 904 1320 1331 1263 1214 1645 2055 2165 1986 1844 1716 1719 1653 1684 1553 1591 1591 1551 1492 1379 1177 1129 1204 1244 1240 1148 1321 1400 1755 1884 1771 2017 1986 1744 1457 1029 977 1071 1065 617 366 496 584 652 684 664 614 574 522 502 516 514 327 44 1 514 942 912 714 496 606 661 411 158 404
198 337 401 43 31 66 107 58 39 15 32 5 312 243 238 250 268 236 112 37 86 587 1093 1342 1327 1465 1649 1606 2108 2109 1743 1651 1852 1996 1952 1887 1828 1346 1275 1388 1395 1572 1532 1515 1629 1688 1531 1366 1252 1018 855 634 788 1712 1978 1808 1524 1236 1148 1275 984 645 597 544 554 611 651 924 722 594 479 305 263 276 91 133 425 479 535 221 195 82 107 249 200 52 130
55 423 46 71 51 34 16 9 84 52 16 28 17 7 40 118 100 49 36 219 374 619 1284 1689 1736 1657 1741 2156 1966 1797 1657 1684 1519 1354 1290 1353 1164 1184 1149 1127 1283 1439 1544 1487 1370 1315 1164 1037 1023 975 913 791 493 876 1353 1311 1322 1416 1371 1475 1167 970 684 516 498 712 666 958 518 407 377 386 416 266 66 311 10 13 0 9 0 0 0 0 0 0 2
96 95 92 326 232 71 38 36 21 13 24 15 16 22 3 2 6 0 0 3 155 412 1044 1514 1718 1611 1667 1866 1921 1689 1705 1655 1432 1244 1214 1322 1289 1172 923 1050 1260 1190 1198 1175 1631 1629 1399 1241 887 701 774 633 680 1199 1388 1622 1958 1636 1463 1249 1174 937 790 727 732 747 496 476 485 414 342 130 0 0 1 0 0 0 0 0 0 0 0 0 0 0 0
81 62 480 791 87 478 42 41 56 40 9 22 245 8 0 0 0 0 0 2 32 135 227 1768 1946 1866 1523 1045 1974 1870 1968 1696 1446 1275 1334 1410 1319 1213 826 819 853 974 1143 1592 1393 834 624 594 622 570 388 279 346 781 1498 1697 2148 2228 1908 1341 1218 1146 1001 798 622 522 505 533 385 204 0 0 0 7 88 68 0 0 0 0 0 0 0 0 0 0 0
31 30 60 24 30 34 7 41 8 7 28 106 6 0 0 0 0 0 0 45 36 0 0 364 1420 1522 1474 1010 1518 1644 2116 2190 2004 1744 1538 1552 1687 1632 1188 875 964 1536 1852 1234 923 736 558 480 384 239 143 169 353 646 940 1435 1617 1391 1412 1141 889 583 381 496 786 778 575 423 236 304 346 142 0 36 32 0 0 0 0 0 0 0 0 0 0 0 0
0 0 102 201 37 0 0 0 0 0 1 1 0 0 0 0 0 0 3 0 10 20 0 0 1032 1371 1244 1084 1595 1845 1996 2333 2396 2133 1833 1593 1547 1525 1492 1683 1492 1634 1509 1144 1266 812 421 373 353 461 382 397 648 777 903 981 1056 1054 936 930 770 766 884 957 637 1259 920 469 432 398 158 89 0 0 0 0 0 42 36 178 0 0 0 0 0 0 0
0 0 0 41 152 73 0 0 0 0 0 0 0 0 0 2 76 254 32 0 0 0 0 0 0 894 1144 1146 1500 1834 1853 1991 2050 1564 1462 1469 1362 1103 1244 1819 1777 1492 1269 1247 984 706 379 220 126 268 463 453 500 499 732 725 878 883 791 752 799 875 847 960 863 843 807 791 477 326 559 571 159 0 0 0 0 92 68 0 0 0 0 0 0 0 0
0 0 0 0 0 0 0 0 0 0 0 0 0 0 0 0 26 0 0 0 0 0 0 0 0 515 756 1277 1323 1687 1870 1661 1751 1542 1376 1322 1274 1106 1084 904 1455 1250 1054 862 569 489 420 370 139 177 257 332 497 474 579 590 440 479 531 714 835 1036 1028 1542 714 622 317 442 493 711 624 560 828 846 510 312 7 0 285 214 0 0 0 0 0 0 0
0 0 0 0 0 0 0 0 0 0 0 0 0 0 0 0 0 0 0 0 0 0 0 0 1 16 631 857 991 1462 2070 1848 1725 1448 1423 1412 1135 966 1533 1396 1396 968 825 918 810 1046 711 197 334 564 435 471 300 372 482 578 629 587 652 614 598 722 953 683 541 609 891 672 513 492 527 666 616 524 650 447 54 0 0 1 1 0 0 0 0 0 0
0 0 0 0 0 0 0 0 0 0 0 0 0 0 0 0 0 0 0 0 0 0 0 0 0 0 160 327 926 1090 1416 1736 1778 1562 1526 1383 1144 1034 1431 1567 1621 1308 1201 1105 826 626 183 157 540 553 468 613 359 449 557 551 512 469 496 556 695 596 535 630 670 692 708 760 616 486 487 342 398 376 339 335 292 147 73 44 45 15 9 1 0 0 0
0 0 0 0 0 0 0 0 24 0 0 0 0 0 0 0 0 0 0 0 0 0 0 0 0 0 0 8 180 1294 1163 1356 1419 1513 1477 1428 1272 1341 1434 1162 1200 922 780 553 436 521 613 860 794 737 770 606 403 292 558 672 653 613 828 930 737 737 786 737 593 522 500 479 455 466 438 409 398 368 298 224 146 117 37 26 52 18 6 2 0 0 1
0 0 0 0 0 0 0 0 0 0 0 0 0 0 0 0 0 0 0 0 0 0 0 0 0 35 0 40 306 734 1176 1164 1236 1348 1154 919 1112 1097 1078 1000 1098 879 640 415 356 602 608 608 962 993 728 446 323 655 594 783 939 966 719 627 590 549 549 770 672 548 432 394 456 498 509 493 388 326 272 0 0 0 0 0 9 8 1 0 0 0 0
0 0 0 0 0 0 0 0 0 0 0 0 0 0 0 0 0 0 0 0 0 0 0 0 221 102 341 1871 1845 1698 1438 1476 1316 1164 1050 920 864 811 867 807 948 1010 748 662 548 580 664 864 910 798 676 400 388 355 436 600 784 749 726 911 661 583 460 549 670 670 793 745 464 450 406 397 131 25 35 27 0 0 0 0 0 0 1 0 0 0 0
0 0 0 0 0 0 0 0 0 0 0 0 0 0 0 0 0 0 0 0 0 0 0 0 0 0 1687 1942 1808 1812 1680 1343 1160 1138 1048 994 902 812 710 549 508 834 904 770 579 706 643 742 768 904 748 503 472 324 324 551 842 876 808 692 568 464 480 364 437 449 663 536 450 502 460 394 289 90 0 0 0 0 0 0 0 0 0 0 0 0 0
0 0 0 0 0 0 0 0 0 0 0 0 0 0 0 0 0 0 0 0 0 0 0 0 0 0 371 1718 1782 1495 1294 1359 1310 1258 1013 701 670 663 702 696 647 651 594 460 521 164 524 614 845 874 675 209 231 392 365 419 573 624 508 430 395 320 263 260 309 393 359 403 472 430 429 378 261 0 0 6 0 0 0 0 0 0 0 0 0 0 0
0 0 0 0 0 0 0 0 0 0 0 0 0 0 0 0 0 0 0 0 0 0 0 0 0 0 1331 1902 1881 1775 1574 1398 1161 1078 786 690 622 603 434 427 379 368 301 221 366 74 163 557 718 409 422 293 245 298 396 393 390 485 543 484 446 347 364 276 257 321 340 366 357 358 361 279 93 467 254 6 0 12 6 9 7 0 0 0 0 0 0
0 0 0 0 0 0 0 0 0 0 0 0 0 0 0 0 0 0 0 0 0 0 0 0 0 0 651 1876 1724 1422 1283 1044 887 725 683 749 623 669 606 514 437 314 178 149 125 164 194 232 742 896 653 400 239 320 487 367 379 393 386 372 311 306 346 327 295 243 197 225 223 306 265 269 169 137 42 0 0 4 0 0 14 17 4 0 0 0 0
0 0 0 0 0 0 0 0 0 0 0 0 0 0 0 0 0 0 0 0 0 0 0 0 0 0 0 1614 1630 1341 1161 1084 1196 1170 946 758 662 601 610 443 401 372 298 255 179 286 284 255 319 453 337 208 199 272 603 558 333 349 330 284 256 252 119 52 46 7 12 6 0 30 55 41 0 0 0 0 0 0 0 4 20 0 0 0 0 0 0
0 0 0 0 0 0 0 0 0 0 0 0 0 0 0 0 0 0 0 7 6 4 15 4 11 2 604 1114 1191 1131 1006 957 989 895 821 856 773 636 554 524 563 502 312 275 165 218 90 260 331 254 318 20 18 180 365 398 322 241 148 120 59 36 30 6 31 17 1 0 6 0 0 0 0 0 0 0 0 3 3 0 0 0 0 0 0 0 0
0 0 0 0 0 0 0 0 0 0 0 0 0 0 2 0 0 0 15 8 1 2 14 14 4 20 378 1080 1120 1084 887 805 922 910 773 747 714 571 540 517 476 526 298 306 303 335 314 346 524 123 33 18 11 26 62 12 48 0 53 30 77 66 82 44 18 8 2 8 2 0 0 0 0 0 0 0 0 4 6 4 2 0 0 0 0 3 4
0 0 0 0 0 0 0 0 0 0 0 0 0 0 2 1 5 15 13 5 1 63 106 31 8 42 248 515 828 1007 950 878 870 879 754 614 572 605 644 600 527 438 422 411 382 330 312 179 203 161 77 38 12 0 66 20 8 0 0 121 79 156 95 78 49 37 16 1 2 25 0 0 1 2 3 5 8 8 4 2 0 1 4 7 0 0 0
0 0 0 0 0 0 0 0 0 0 0 1 3 6 4 5 31 48 34 17 30 203 314 151 92 87 25 226 634 810 1071 999 890 769 738 698 667 598 562 433 342 365 351 287 248 302 350 208 80 0 0 0 0 205 0 8 0 0 0 31 43 29 63 50 25 24 22 16 0 0 0 0 2 4 1 4 2 1 0 0 0 0 0 0 0 0 0
0 0 0 0 0 0 0 0 0 0 0 2 8 5 23 83 139 155 134 294 319 327 207 185 308 200 125 27 240 522 724 664 677 657 624 586 484 395 371 408 345 286 454 501 396 226 21 0 69 96 0 0 0 0 35 0 0 0 2 0 0 0 1 7 11 9 19 17 0 0 0 0 0 0 0 0 0 0 0 0 0 0 0 0 0 0 0
4 4 2 1 0 0 0 0 2 3 2 2 20 94 147 223 283 253 212 251 275 266 211 138 159 161 85 27 107 232 475 499 464 461 421 331 361 394 385 337 241 432 415 54 0 0 0 0 0 0 0 0 0 0 0 0 0 0 0 0 1 0 2 8 9 5 7 5 0 0 0 0 0 0 0 0 0 0 0 0 0 0 0 0 0 0 0
6 5 8 9 10 17 8 2 0 1 4 24 72 142 180 252 297 312 352 356 234 271 262 247 223 176 164 84 29 137 408 411 451 455 432 418 408 373 316 330 94 211 134 0 0 0 0 0 0 0 0 0 0 0 0 0 0 0 0 0 0 0 0 0 0 5 18 15 10 3 0 1 0 0 0 0 0 0 0 0 0 0 0 0 0 0 0
3 0 6 9 25 50 23 0 9 14 57 84 27 94 208 259 346 422 531 378 403 366 333 305 260 98 32 88 196 444 526 566 499 409 384 390 340 323 282 316 160 98 28 0 0 0 0 0 0 0 0 0 0 0 0 0 0 0 0 0 0 0 0 0 0 0 0 0 0 0 0 0 0 0 0 0 0 0 0 0 0 0 0 0 0 0 0
24 4 13 32 45 59 65 55 72 114 140 166 61 135 362 296 420 473 404 424 433 460 33 370 434 530 628 441 526 516 494 350 482 512 647 283 152 127 209 340 133 211 101 18 0 0 0 0 0 0 0 0 0 0 0 0 0 0 0 0 0 0 0 0 0 0 0 0 0 0 1 1 0 0 0 0 0 0 0 0 0 0 0 0 0 0 0
140 136 122 110 80 73 160 176 172 168 112 135 37 43 214 539 590 601 508 521 372 375 409 692 863 802 694 506 676 334 207 221 218 314 238 252 357 236 365 307 313 154 231 0 0 0 0 0 0 0 0 0 0 0 0 0 0 0 0 0 0 0 0 0 0 0 0 0 0 7 11 0 0 0 0 0 0 0 0 0 0 0 0 0 0 0 0
325 287 261 297 268 167 126 67 175 61 70 87 91 144 314 309 506 446 588 606 655 688 855 926 886 919 744 551 432 722 912 416 409 333 136 10 3 10 23 0 15 401 98 9 0 0 0 0 0 0 0 0 0 0 0 0 0 0 0 0 0 0 0 0 0 0 0 0 1 0 0 0 0 0 0 1 1 0 0 0 0 0 0 0 0 0 0
329 391 549 562 414 399 337 177 264 271 254 300 270 319 567 261 387 786 626 752 610 673 610 458 506 584 740 731 522 200 582 718 464 240 138 0 0 0 0 6 1 0 0 0 0 0 0 0 0 0 0 0 0 0 0 0 0 0 0 0 0 0 0 0 0 0 0 0 0 0 1 0 0 0 0 1 1 1 0 0 0 0 0 0 0 0 0
336 415 623 630 628 602 390 323 302 332 449 434 548 608 573 682 660 720 636 486 547 572 470 539 441 302 580 476 346 260 529 598 461 481 248 19 0 0 0 0 0 0 0 0 0 0 0 0 0 0 0 0 0 0 0 0 0 0 0 0 0 0 0 0 0 0 0 0 0 0 0 0 0 0 0 0 0 0 0 0 0 0 0 0 0 0 0
575 650 668 789 664 613 569 470 672 662 570 577 594 543 628 624 345 599 560 479 396 306 331 352 314 192 191 254 505 174 65 505 280 621 135 15 3 13 0 0 0 0 0 0 0 0 0 0 0 0 0 0 0 0 0 0 1 2 3 3 3 5 2 0 0 0 0 0 0 0 0 0 0 1 1 0 0 0 0 2 0 0 0 0 0 0 0
568 613 772 641 568 547 513 342 506 849 943 842 505 470 542 634 579 283 243 330 634 372 219 175 138 331 240 150 290 248 143 130 104 226 377 97 5 1 0 0 0 0 0 0 0 0 0 0 0 0 0 0 0 0 0 0 0 1 2 13 12 10 4 2 0 0 0 0 0 0 0 0 0 0 0 0 0 0 1 0 0 0 0 0 0 0 0
Wind_Speed
28 nan nan nan nan nan nan nan nan nan nan nan nan nan nan 31 nan nan nan nan nan nan nan nan nan 36 nan nan nan nan nan 38 36 31 29 31 33 30 29 27 29 29 31 34 38 40 41 43 44 44 43 43 42 42 45 44 43 42 39 38 36 36 35 34 31 28 28 30 33 35 35 36 35 35 34 34 34 nan nan nan 38 nan nan nan nan nan nan
nan nan nan nan nan nan nan nan nan nan nan nan nan nan nan nan 32 nan 26 25 28 nan nan nan nan 39 nan nan nan nan nan nan 34 33 31 30 30 31 31 31 33 34 35 37 40 42 42 42 42 43 44 44 44 45 46 45 43 43 44 41 38 37 35 33 30 29 30 32 33 34 35 35 36 35 nan 34 34 36 37 39 41 42 42 42 43 45 nan
nan nan nan nan nan nan nan nan nan nan nan nan nan nan nan nan nan 33 34 33 nan 26 34 nan 39 46 nan 51 nan nan 49 46 nan nan nan nan 30 33 32 32 34 35 37 40 41 42 41 42 42 42 42 41 42 45 47 47 46 47 48 43 39 38 36 34 30 28 30 32 33 34 35 35 35 36 36 36 36 37 38 40 43 43 44 45 44 nan nan
nan nan nan nan nan nan nan nan nan nan nan nan nan nan nan nan nan nan 36 34 28 29 33 38 42 nan nan nan nan nan nan nan 45 41 35 31 30 32 34 33 32 33 37 40 42 41 40 41 41 39 38 38 42 46 45 42 40 46 51 45 41 40 39 37 26 26 29 33 35 36 36 36 37 38 38 38 39 39 40 41 43 45 46 46 45 44 46
nan nan nan nan nan nan nan nan nan nan nan nan nan nan nan nan nan nan 31 31 33 34 39 45 44 51 nan nan 54 59 nan nan 43 36 29 27 30 31 30 34 34 35 35 36 39 42 40 40 41 39 42 50 49 48 50 48 46 45 47 48 49 50 47 33 20 25 33 35 36 37 36 37 38 39 40 40 39 40 41 42 44 46 47 47 47 47 48
nan nan nan nan nan nan nan 33 nan nan nan nan nan nan nan nan 39 33 nan 39 37 42 nan 47 48 55 nan nan nan nan nan 42 nan nan nan 28 nan nan 31 32 35 37 37 34 35 38 38 39 42 43 50 50 45 46 47 46 45 43 44 48 52 50 42 28 21 29 37 37 37 36 37 39 40 41 42 41 40 41 42 43 45 46 48 48 48 nan nan
nan 44 42 nan nan nan nan nan nan nan nan nan nan nan nan nan 46 47 52 49 nan nan nan 43 45 nan nan nan 59 nan 51 43 40 38 35 34 34 34 32 29 nan 37 39 35 33 35 38 45 52 53 47 44 43 44 47 48 46 46 43 42 44 43 33 25 26 37 41 39 37 36 38 41 43 43 43 41 41 41 43 44 46 48 48 49 49 49 49
nan nan nan nan nan 46 nan nan nan nan nan nan 47 nan 40 44 nan 42 nan 50 51 47 46 46 nan nan nan 60 60 nan nan nan nan nan nan nan 37 nan nan nan nan nan 38 36 34 37 48 52 48 49 47 44 45 46 48 49 47 42 38 38 32 25 18 23 34 40 41 39 37 37 40 42 43 43 43 43 42 41 42 45 47 48 48 50 49 49 49
nan nan nan nan 49 nan nan nan 49 nan nan 47 46 nan nan nan nan nan 43 49 49 43 41 47 52 nan nan nan nan nan nan nan nan nan nan nan nan nan 34 33 32 33 34 35 42 54 54 53 52 51 54 52 48 45 48 50 49 43 37 33 27 24 22 30 37 39 39 39 38 39 41 43 43 44 44 42 40 40 43 46 47 48 49 50 50 nan 48
nan nan nan nan nan nan nan nan 44 nan nan nan 47 51 47 47 48 40 42 nan nan nan nan 51 nan nan nan nan nan nan 33 nan nan nan nan nan nan nan 38 37 36 36 39 50 53 50 50 47 48 51 52 49 43 43 50 53 50 42 31 31 31 28 30 34 37 37 38 38 39 39 41 42 44 44 44 42 41 43 47 49 48 48 49 49 49 50 48
nan nan nan nan nan 49 51 49 47 47 nan 42 48 51 49 49 50 47 nan 47 nan 50 nan nan nan nan nan nan nan nan nan nan nan nan nan 45 41 38 36 42 52 54 55 55 56 54 50 51 51 49 40 33 32 40 44 39 33 33 32 32 32 31 32 35 36 37 39 40 40 42 42 43 43 43 43 42 42 46 49 49 47 47 48 48 48 49 50
nan nan nan nan nan nan 42 44 43 nan nan nan 49 46 51 nan 55 51 57 58 55 nan nan nan nan nan nan nan nan nan nan nan nan 40 45 45 41 38 44 51 47 48 51 51 53 53 52 53 55 51 46 44 41 39 35 33 33 32 34 36 34 31 32 35 36 38 40 41 42 43 44 43 41 41 42 43 46 49 49 48 48 48 49 47 47 49 nan
nan nan nan nan nan 39 40 nan nan nan nan nan nan nan 48 53 59 63 nan 65 nan nan nan nan 62 57 nan nan nan nan nan 44 41 37 36 41 nan nan 49 45 47 47 47 51 53 54 52 54 51 49 45 48 45 41 38 41 42 38 35 35 32 31 34 37 39 40 41 43 44 44 44 42 41 43 47 49 49 49 48 48 49 47 45 45 48 48 49
nan nan nan nan nan 38 nan nan 46 43 nan nan nan 39 41 49 59 59 nan nan nan 64 63 64 62 nan nan nan 48 45 41 39 36 37 38 39 45 50 50 51 49 45 46 48 49 49 50 53 52 49 47 48 45 42 nan nan 39 36 36 34 33 35 37 39 40 41 42 43 44 44 43 43 45 48 48 48 50 51 52 52 48 43 43 48 51 49 48
nan nan nan nan nan 33 40 nan 42 43 42 34 39 42 43 44 47 52 55 57 55 55 nan 55 54 50 48 44 42 41 41 40 40 42 42 44 48 49 50 48 48 49 45 47 49 49 49 52 51 48 46 44 42 42 43 40 40 43 44 39 36 35 39 39 39 40 41 44 45 45 46 47 50 51 48 50 53 55 53 48 43 43 49 52 52 49 48
39 nan 32 31 31 29 35 37 39 37 40 41 44 42 42 42 44 45 nan 48 47 47 46 44 nan 41 nan 41 41 40 nan 41 40 43 44 45 52 53 51 51 50 51 48 47 49 49 50 50 51 49 43 38 38 40 41 41 44 47 47 43 42 42 40 41 43 44 45 46 48 49 51 52 53 54 53 54 56 53 48 nan 43 49 53 52 51 50 48
41 37 37 40 40 nan 41 43 40 43 41 41 40 nan nan nan nan 43 nan 45 nan 42 nan nan 39 39 38 39 nan 39 41 42 44 46 46 45 45 47 47 47 49 53 54 53 52 51 50 51 52 49 40 38 42 45 41 39 43 46 45 44 43 41 42 45 48 48 50 51 52 53 54 56 56 57 58 59 57 52 49 48 50 50 51 51 53 51 48
40 46 49 41 nan nan nan nan 48 48 48 47 44 43 44 nan nan nan nan 43 nan nan nan nan nan 39 40 nan nan 42 44 45 42 41 43 46 47 47 46 45 44 50 54 55 55 53 48 47 48 44 39 40 49 46 41 38 42 44 44 44 44 43 44 46 48 51 54 54 54 56 56 57 59 59 60 60 57 54 56 55 53 52 51 53 53 51 48
40 41 43 43 44 nan nan nan nan nan nan 46 45 44 44 42 42 nan nan nan nan nan 48 47 45 44 45 48 46 45 44 44 41 39 39 39 43 47 47 47 49 49 51 54 53 52 50 46 46 44 43 44 49 46 43 41 42 41 41 41 42 44 45 46 48 50 53 53 54 55 57 58 59 59 58 nan nan 55 55 55 54 53 53 53 50 48 47
43 35 35 nan nan nan 48 nan nan nan nan nan 46 44 43 40 38 37 39 nan nan 43 44 43 44 44 44 45 42 41 41 41 41 40 39 39 41 43 45 47 48 49 51 52 53 53 51 44 42 41 43 46 46 43 42 43 43 42 39 38 40 43 47 49 50 51 51 53 55 56 55 55 54 55 nan 54 57 58 58 55 54 nan 52 50 49 nan 46
nan 46 nan nan nan nan nan nan nan nan nan nan nan nan nan 42 42 nan nan 41 41 41 42 43 43 44 41 42 42 41 39 39 40 40 41 41 42 42 45 45 48 47 45 48 51 52 49 45 42 42 43 44 48 47 47 45 44 43 42 40 42 45 47 49 51 49 51 54 54 54 55 54 54 53 nan 52 nan nan nan nan nan nan nan nan nan nan nan
nan nan nan 41 41 nan nan nan nan nan nan nan nan nan nan nan nan nan nan nan 40 40 40 43 43 42 40 39 40 40 40 39 38 40 41 42 43 43 43 45 48 49 50 52 52 51 47 46 47 47 48 45 48 49 46 45 42 41 40 40 42 45 48 51 52 52 53 54 53 54 55 56 nan nan nan nan nan nan nan nan nan nan nan nan nan nan nan
nan nan 50 49 nan 46 nan nan nan nan nan nan 44 nan nan nan nan nan nan nan nan 35 34 38 41 40 39 39 41 41 40 39 38 39 40 41 42 43 42 44 45 48 50 51 54 53 50 49 52 53 52 49 44 44 41 41 41 42 44 45 45 47 50 53 54 53 53 53 53 55 nan nan nan nan nan nan nan nan nan nan nan nan nan nan nan nan nan
nan nan nan nan nan nan nan nan nan nan nan 34 nan nan nan nan nan nan nan nan nan nan nan 33 37 40 40 38 40 41 41 40 41 40 39 41 43 45 46 47 48 49 50 52 54 53 48 47 50 53 52 49 39 38 40 44 45 48 50 50 50 53 55 54 54 53 52 52 53 55 56 56 nan nan nan nan nan nan nan nan nan nan nan nan nan nan nan
nan nan 37 37 nan nan nan nan nan nan nan nan nan nan nan nan nan nan nan nan nan nan nan nan 35 38 41 38 41 43 42 41 42 45 48 47 46 48 48 49 51 51 51 51 52 54 53 52 52 49 49 43 39 43 45 48 48 49 49 49 49 50 53 52 53 52 52 53 53 53 54 nan nan nan nan nan nan nan nan 46 nan nan nan nan nan nan nan
nan nan nan nan 40 nan nan nan nan nan nan nan nan nan nan nan nan 35 nan nan nan nan nan nan nan 36 38 41 41 41 41 44 47 51 51 51 49 49 50 51 53 54 54 53 55 57 54 52 53 50 47 43 45 48 51 52 51 49 48 48 48 49 49 50 51 51 52 53 52 53 54 57 56 nan nan nan nan nan nan nan nan nan nan nan nan nan nan
nan nan nan nan nan nan nan nan nan nan nan nan nan nan nan nan nan nan nan nan nan nan nan nan nan 38 39 45 45 42 43 45 48 50 50 49 49 50 52 53 54 56 57 55 52 51 52 51 52 50 50 50 49 51 52 53 51 49 47 47 46 44 49 52 50 49 49 50 50 52 53 53 54 53 54 53 nan nan 46 44 nan nan nan nan nan nan nan
nan nan nan nan nan nan nan nan nan nan nan nan nan nan nan nan nan nan nan nan nan nan nan nan nan nan 41 41 44 45 46 48 48 47 48 48 49 50 54 57 55 53 51 51 51 50 51 50 51 51 50 46 47 52 55 54 50 46 44 44 45 46 45 46 49 50 50 50 51 52 52 52 54 54 54 53 nan nan nan nan nan nan nan nan nan nan nan
nan nan nan nan nan nan nan nan nan nan nan nan nan nan nan nan nan nan nan nan nan nan nan nan nan nan 40 42 44 46 48 49 46 45 46 48 48 47 52 54 53 53 53 53 54 54 54 52 51 54 53 47 49 53 55 51 46 43 43 42 45 48 48 48 49 50 50 51 51 52 52 54 54 54 52 50 47 44 nan nan nan nan nan nan nan nan nan
nan nan nan nan nan nan nan nan nan nan nan nan nan nan nan nan nan nan nan nan nan nan nan nan nan nan nan nan 40 45 49 49 47 45 47 49 48 48 51 52 54 53 53 52 51 51 53 52 52 52 51 51 54 56 53 46 42 42 43 44 45 47 48 49 51 51 52 52 53 54 55 55 54 53 50 48 45 42 nan nan nan nan nan nan nan nan nan
nan nan nan nan nan nan nan nan nan nan nan nan nan nan nan nan nan nan nan nan nan nan nan nan nan nan nan nan 36 39 45 48 50 50 49 46 46 47 49 51 55 53 52 51 52 56 57 52 46 48 49 54 54 49 43 39 38 40 43 44 46 49 52 54 53 52 52 52 52 53 54 54 54 52 49 nan nan nan nan nan nan nan nan nan nan nan nan
nan nan nan nan nan nan nan nan nan nan nan nan nan nan nan nan nan nan nan nan nan nan nan nan 42 40 39 40 42 47 51 54 54 52 50 48 48 48 50 51 52 52 51 50 49 50 54 56 55 49 48 47 42 38 36 38 39 40 43 46 47 47 50 53 51 51 50 50 50 51 52 53 51 nan nan nan nan nan nan nan nan nan nan nan nan nan nan
nan nan nan nan nan nan nan nan nan nan nan nan nan nan nan nan nan nan nan nan nan nan nan nan nan nan 42 47 48 47 47 48 50 51 51 51 49 48 49 49 51 53 52 51 52 47 43 55 54 48 44 41 38 39 42 42 43 44 45 47 49 49 50 50 50 51 52 51 52 52 51 50 48 nan nan nan nan nan nan nan nan nan nan nan nan nan nan
nan nan nan nan nan nan nan nan nan nan nan nan nan nan nan nan nan nan nan nan nan nan nan nan nan nan 38 44 46 48 49 50 49 49 50 51 51 51 52 53 52 52 51 52 54 53 41 41 43 37 39 39 43 47 51 50 48 48 48 49 50 52 52 50 51 52 52 51 50 50 50 49 49 nan nan nan nan nan nan nan nan nan nan nan nan nan nan
nan nan nan nan nan nan nan nan nan nan nan nan nan nan nan nan nan nan nan nan nan nan nan nan nan nan 43 47 47 48 49 49 49 50 50 50 50 51 52 54 54 54 53 50 52 nan 46 31 35 40 43 46 50 52 51 52 52 50 49 49 50 51 51 53 54 53 52 52 51 51 49 48 nan 45 42 nan nan nan nan nan nan nan nan nan nan nan nan
nan nan nan nan nan nan nan nan nan nan nan nan nan nan nan nan nan nan nan nan nan nan nan nan nan nan 44 49 49 51 52 52 52 51 49 48 48 49 51 52 51 52 51 50 48 49 49 41 46 56 53 51 50 48 48 49 50 50 49 51 51 50 51 52 52 51 51 51 51 49 48 47 44 40 nan nan nan nan nan nan nan nan nan nan nan nan nan
nan nan nan nan nan nan nan nan nan nan nan nan nan nan nan nan nan nan nan nan nan nan nan nan nan nan nan 50 52 54 54 54 53 51 49 48 47 48 50 50 49 49 49 50 49 50 51 50 56 60 55 52 50 49 49 53 50 50 49 50 48 50 50 nan nan nan nan nan nan nan nan nan nan nan nan nan nan nan nan nan nan nan nan nan nan nan nan
nan nan nan nan nan nan nan nan nan nan nan nan nan nan nan nan nan nan nan nan nan nan nan nan nan nan 44 54 57 56 54 54 52 49 47 47 45 47 47 47 47 47 49 49 49 52 nan 53 57 54 53 nan nan 50 51 53 50 48 47 48 nan nan nan nan nan nan nan nan nan nan nan nan nan nan nan nan nan nan nan nan nan nan nan nan nan nan nan
nan nan nan nan nan nan nan nan nan nan nan nan nan nan nan nan nan nan nan nan nan nan nan nan nan nan 41 53 56 55 54 53 51 49 47 46 44 45 45 45 44 46 49 49 50 51 52 51 50 52 nan nan nan nan nan nan nan nan nan nan nan nan nan nan nan nan nan nan nan nan nan nan nan nan nan nan nan nan nan nan nan nan nan nan nan nan nan
nan nan nan nan nan nan nan nan nan nan nan nan nan nan nan nan nan nan nan nan nan nan 45 nan nan nan 40 39 51 56 54 51 49 46 44 43 44 45 45 44 44 46 47 50 48 49 50 51 49 49 nan nan nan nan nan nan nan nan nan 42 nan 42 nan nan nan nan nan nan nan nan nan nan nan nan nan nan nan nan nan nan nan nan nan nan nan nan nan
nan nan nan nan nan nan nan nan nan nan nan nan nan nan nan nan nan nan nan nan nan 44 43 45 nan nan nan 32 37 52 50 43 39 40 40 41 43 42 42 41 38 39 43 44 43 44 44 44 nan nan nan nan nan 46 nan nan nan nan nan nan nan nan nan nan nan nan nan nan nan nan nan nan nan nan nan nan nan nan nan nan nan nan nan nan nan nan nan
nan nan nan nan nan nan nan nan nan nan nan nan nan nan nan nan 48 49 49 50 49 48 46 43 40 35 33 nan 32 45 46 39 38 40 39 39 38 36 37 36 36 37 40 42 43 43 nan nan nan nan nan nan nan nan nan nan nan nan nan nan nan nan nan nan nan nan nan nan nan nan nan nan nan nan nan nan nan nan nan nan nan nan nan nan nan nan nan
nan nan nan nan nan nan nan nan nan nan nan nan nan nan 37 38 42 44 46 49 49 47 45 43 39 40 nan nan 31 39 42 38 38 35 32 30 30 30 32 34 35 38 45 nan nan nan nan nan nan nan nan nan nan nan nan nan nan nan nan nan nan nan nan nan nan nan nan nan nan nan nan nan nan nan nan nan nan nan nan nan nan nan nan nan nan nan nan
nan nan nan nan nan nan nan nan nan nan nan nan nan 28 29 29 28 28 31 37 43 43 41 38 40 38 32 nan nan 26 30 29 27 28 29 29 29 28 31 33 nan 36 41 nan nan nan nan nan nan nan nan nan nan nan nan nan nan nan nan nan nan nan nan nan nan nan nan nan nan nan nan nan nan nan nan nan nan nan nan nan nan nan nan nan nan nan nan
nan nan nan nan nan nan nan nan nan nan nan nan nan nan 22 21 20 17 16 19 26 29 31 32 33 nan nan nan 24 27 27 23 24 26 27 25 27 25 25 29 30 nan nan nan nan nan nan nan nan nan nan nan nan nan nan nan nan nan nan nan nan nan nan nan nan nan nan nan nan nan nan nan nan nan nan nan nan nan nan nan nan nan nan nan nan nan nan
nan nan nan nan nan nan nan nan nan 19 17 17 nan 14 15 14 11 11 11 10 9 12 nan 16 19 21 21 23 26 24 22 21 22 22 22 22 23 25 25 27 26 27 27 nan nan nan nan nan nan nan nan nan nan nan nan nan nan nan nan nan nan nan nan nan nan nan nan nan nan nan nan nan nan nan nan nan nan nan nan nan nan nan nan nan nan nan nan
13 13 14 15 nan nan 15 15 16 15 15 15 nan nan 9 9 7 7 9 10 9 7 3 5 10 12 13 15 17 19 19 20 19 19 22 23 26 26 25 27 27 27 27 nan nan nan nan nan nan nan nan nan nan nan nan nan nan nan nan nan nan nan nan nan nan nan nan nan nan nan nan nan nan nan nan nan nan nan nan nan nan nan nan nan nan nan nan
9 10 11 12 11 10 10 nan 13 nan nan nan nan 13 12 7 6 9 8 8 7 8 6 4 2 5 8 8 10 13 15 18 17 15 19 nan nan nan nan nan nan 24 nan nan nan nan nan nan nan nan nan nan nan nan nan nan nan nan nan nan nan nan nan nan nan nan nan nan nan nan nan nan nan nan nan nan nan nan nan nan nan nan nan nan nan nan nan
9 10 10 10 10 8 8 10 11 11 9 10 12 12 11 11 9 8 8 8 8 7 7 5 4 4 6 7 10 10 11 14 17 16 17 nan nan nan nan nan nan nan nan nan nan nan nan nan nan nan nan nan nan nan nan nan nan nan nan nan nan nan nan nan nan nan nan nan nan nan nan nan nan nan nan nan nan nan nan nan nan nan nan nan nan nan nan
10 10 8 10 9 8 8 8 9 9 9 11 11 10 11 10 10 10 9 9 9 9 8 6 6 6 8 10 13 12 11 14 15 17 19 nan nan nan nan nan nan nan nan nan nan nan nan nan nan nan nan nan nan nan nan nan nan nan nan nan nan nan nan nan nan nan nan nan nan nan nan nan nan nan nan nan nan nan nan nan nan nan nan nan nan nan nan
8 8 8 9 9 9 8 9 10 11 11 12 14 13 12 11 10 12 12 12 11 10 9 8 7 7 8 12 15 17 nan 14 17 20 22 nan nan nan nan nan nan nan nan nan nan nan nan nan nan nan nan nan nan nan nan nan nan nan nan nan nan nan nan nan nan nan nan nan nan nan nan nan nan nan nan nan nan nan nan nan nan nan nan nan nan nan nan
9 10 11 11 10 9 9 10 11 11 12 12 12 13 13 13 11 12 12 10 13 13 11 11 9 11 12 13 17 18 17 18 20 21 22 nan nan nan nan nan nan nan nan nan nan nan nan nan nan nan nan nan nan nan nan nan nan nan nan nan nan nan nan nan nan nan nan nan nan nan nan nan nan nan nan nan nan nan nan nan nan nan nan nan nan nan nan
Wind_Direction
220 nan nan nan nan nan nan nan nan nan nan nan nan nan nan 260 nan nan nan nan nan nan nan nan nan 286 nan nan nan nan nan 281 280 287 296 301 308 303 305 306 311 321 324 323 324 324 326 325 324 321 315 313 312 310 307 302 302 306 300 300 303 304 304 304 305 306 307 310 309 310 312 313 316 318 317 315 315 nan nan nan 322 nan nan nan nan nan nan
nan nan nan nan nan nan nan nan nan nan nan nan nan nan nan nan 244 nan 262 279 293 nan nan nan nan 283 nan nan nan nan nan nan 283 289 293 297 300 302 308 314 315 319 325 326 324 323 324 325 323 318 314 313 314 309 302 295 295 295 294 297 299 301 301 301 304 304 307 309 310 311 311 313 315 317 nan 316 319 321 322 324 325 326 328 328 328 327 nan
nan nan nan nan nan nan nan nan nan nan nan nan nan nan nan nan nan 246 260 261 nan 271 289 nan 276 279 nan 284 nan nan 284 281 nan nan nan nan 295 298 305 306 311 314 319 323 323 322 323 324 321 316 314 311 306 301 296 295 293 291 290 294 296 297 298 296 291 298 307 309 310 312 312 314 316 317 318 319 320 321 323 324 326 327 328 329 329 nan nan
nan nan nan nan nan nan nan nan nan nan nan nan nan nan nan nan nan nan 259 256 252 258 268 269 272 nan nan nan nan nan nan nan 277 276 274 274 276 279 289 300 301 308 312 314 318 321 322 320 315 311 307 296 283 276 277 277 280 285 287 289 291 290 285 268 267 293 309 308 310 313 313 318 320 319 319 319 319 320 322 325 327 327 328 329 329 328 326
nan nan nan nan nan nan nan nan nan nan nan nan nan nan nan nan nan nan 266 264 265 265 264 264 265 270 nan nan 265 267 nan nan 281 278 271 269 275 280 282 288 300 304 310 311 316 319 319 316 310 305 291 280 286 296 300 304 300 289 285 282 274 272 274 272 276 303 316 312 312 316 319 320 319 317 318 319 319 320 324 327 327 327 328 327 326 326 324
nan nan nan nan nan nan nan 231 nan nan nan nan nan nan nan nan 237 242 nan 255 257 258 nan 261 262 265 nan nan nan nan nan 279 nan nan nan 269 nan nan 281 285 298 311 314 316 314 315 315 306 296 287 288 296 303 305 302 300 299 294 283 277 277 277 278 273 283 316 317 314 316 319 319 317 317 318 318 318 319 322 324 325 327 327 326 325 323 nan nan
nan 206 206 nan nan nan nan nan nan nan nan nan nan nan nan nan 238 238 242 239 nan nan nan 259 261 nan nan nan 270 nan 277 278 277 277 279 282 286 290 291 294 nan 303 314 317 310 301 297 290 287 291 294 296 300 298 294 291 286 284 284 284 278 281 285 292 309 315 315 316 319 318 317 317 317 318 317 316 319 323 326 326 326 326 324 321 320 321 323
nan nan nan nan nan 208 nan nan nan nan nan nan 216 nan 230 235 nan 245 nan 243 245 245 247 253 nan nan nan 257 260 nan nan nan nan nan nan nan 287 nan nan nan nan nan 302 306 303 289 278 281 288 293 294 291 286 280 275 276 275 274 275 276 280 279 291 309 316 315 314 316 317 315 316 316 316 317 316 317 322 325 326 325 322 320 319 318 319 321 323
nan nan nan nan 214 nan nan nan 213 nan nan 224 224 nan nan nan nan nan 250 249 245 241 242 243 243 nan nan nan nan nan nan nan nan nan nan nan nan nan 286 292 289 287 288 294 282 279 285 291 293 291 288 285 283 282 282 287 292 293 292 298 308 311 311 317 318 315 314 316 315 316 317 316 317 318 317 318 322 324 324 324 321 319 318 319 320 nan 322
nan nan nan nan nan nan nan nan 224 nan nan nan 231 230 224 223 227 241 250 nan nan nan nan 250 nan nan nan nan nan nan 260 nan nan nan nan nan nan nan 278 277 271 263 264 264 269 279 283 285 281 280 279 281 286 289 289 291 295 294 296 305 311 307 306 314 317 314 315 317 317 318 318 319 320 318 317 318 320 319 321 321 319 319 319 320 320 320 318
nan nan nan nan nan 230 235 233 226 228 nan 235 236 231 224 224 228 229 nan 244 nan 256 nan nan nan nan nan nan nan nan nan nan nan nan nan 279 276 275 274 266 265 269 277 282 286 286 288 287 284 279 270 266 281 290 283 281 287 299 307 311 309 306 311 316 316 314 316 317 318 321 322 323 321 319 319 318 315 316 317 317 317 316 317 318 316 312 308
nan nan nan nan nan nan 240 241 239 nan nan nan 238 232 230 nan 226 234 240 239 245 nan nan nan nan nan nan nan nan nan nan nan nan 273 280 282 282 276 270 271 279 281 285 286 287 290 294 297 299 301 295 287 286 287 291 299 309 313 316 318 311 307 313 316 316 315 316 318 319 322 324 323 320 320 317 314 312 311 312 314 316 314 311 312 311 309 nan
nan nan nan nan nan 239 239 nan nan nan nan nan nan nan 238 230 230 233 nan 239 nan nan nan nan 256 258 nan nan nan nan nan 266 264 266 270 280 nan nan 276 281 281 285 289 292 296 301 304 304 303 299 295 296 301 304 304 306 314 314 314 312 307 305 311 313 314 316 315 315 319 321 320 321 320 316 313 310 306 306 309 313 311 308 308 310 310 310 307
nan nan nan nan nan 240 nan nan 232 236 nan nan nan 244 240 235 231 233 nan nan nan 248 250 249 253 nan nan nan 266 267 266 269 269 271 272 273 272 274 285 289 290 290 293 293 296 298 300 304 307 307 304 303 304 304 nan nan 308 305 306 304 300 307 312 312 314 312 310 312 316 315 315 313 312 311 309 306 305 306 306 307 308 309 311 310 310 308 307
nan nan nan nan nan 232 235 nan 235 237 249 251 253 250 243 239 237 239 241 245 245 249 nan 248 250 255 259 260 262 266 265 265 270 274 275 275 279 283 286 290 293 294 292 294 296 301 303 304 306 306 301 296 296 297 302 300 297 299 306 310 310 311 308 309 309 308 307 309 309 308 306 305 304 304 306 306 305 305 306 306 309 312 311 310 310 307 306
238 nan 232 233 232 225 240 244 246 245 251 251 247 249 249 244 247 249 nan 250 253 252 252 252 nan 257 nan 259 259 264 nan 272 278 278 279 283 286 289 292 294 296 295 294 296 298 301 303 305 303 300 295 292 290 296 294 287 288 291 293 293 292 288 287 291 295 294 296 298 298 300 301 300 300 302 304 304 303 302 302 nan 313 311 310 308 307 307 307
232 237 242 243 234 nan 239 249 249 252 253 253 256 nan nan nan nan 254 nan 254 nan 254 nan nan 254 256 257 262 nan 269 271 272 278 284 285 284 284 288 292 294 297 297 297 300 300 302 305 305 302 300 290 283 290 292 287 285 289 290 289 287 283 280 283 292 297 297 296 297 298 299 300 301 302 305 306 306 307 308 311 310 309 311 311 308 307 308 307
226 234 235 240 nan nan nan nan 249 254 252 249 249 252 252 nan nan nan nan 257 nan nan nan nan nan 262 266 nan nan 271 275 277 277 278 281 283 285 287 289 290 292 293 296 299 300 302 306 305 301 293 284 285 295 296 289 288 290 289 287 284 279 279 285 294 300 301 299 300 301 302 302 303 304 306 306 308 310 311 310 310 309 309 309 306 307 309 309
227 226 218 228 241 nan nan nan nan nan nan 249 247 248 253 255 255 nan nan nan nan nan 256 257 260 262 266 269 272 273 273 272 273 275 277 281 286 289 290 291 293 293 295 298 301 304 305 305 299 289 283 290 300 300 291 290 288 285 282 281 280 284 291 297 299 299 299 301 302 301 300 301 302 303 305 nan nan 305 304 305 306 306 305 308 310 310 308
249 251 238 nan nan nan 249 nan nan nan nan nan 245 246 246 249 251 255 257 nan nan 259 265 269 272 273 274 276 276 275 276 279 279 279 278 279 282 287 291 291 294 295 297 299 299 301 302 298 294 289 285 288 293 288 282 280 282 282 283 285 286 289 293 297 300 300 299 301 300 299 300 299 300 302 nan 299 301 301 301 304 306 nan 308 309 309 nan 308
nan 249 nan nan nan nan nan nan nan nan nan nan nan nan nan 246 248 nan nan 253 254 257 265 269 271 271 271 278 281 280 282 281 282 284 285 284 286 287 287 289 290 291 292 293 295 296 297 296 291 286 286 290 292 285 279 282 286 286 288 285 284 287 291 296 298 298 297 297 298 298 296 293 292 293 nan 298 nan nan nan nan nan nan nan nan nan nan nan
nan nan nan 256 253 nan nan nan nan nan nan nan nan nan nan nan nan nan nan nan 254 257 264 268 267 270 269 272 279 281 283 285 287 289 289 289 289 289 290 292 294 294 295 294 293 292 290 287 283 278 276 278 282 277 277 283 286 287 287 283 278 282 289 294 294 292 292 295 297 296 295 295 nan nan nan nan nan nan nan nan nan nan nan nan nan nan nan
nan nan 259 261 nan 263 nan nan nan nan nan nan 258 nan nan nan nan nan nan nan nan 257 258 269 273 273 274 275 279 283 286 288 289 288 289 289 289 290 290 290 291 292 292 291 291 291 292 291 286 282 279 278 272 269 274 286 289 288 289 287 283 286 293 296 295 296 298 298 299 300 nan nan nan nan nan nan nan nan nan nan nan nan nan nan nan nan nan
nan nan nan nan nan nan nan nan nan nan nan 245 nan nan nan nan nan nan nan nan nan nan nan 269 277 280 280 282 286 288 288 291 291 291 288 288 289 290 291 292 292 291 291 291 292 294 294 291 285 282 286 288 287 280 282 287 290 288 286 283 283 285 291 293 297 297 299 299 302 303 303 303 nan nan nan nan nan nan nan nan nan nan nan nan nan nan nan
nan nan 255 259 nan nan nan nan nan nan nan nan nan nan nan nan nan nan nan nan nan nan nan nan 275 281 283 283 284 287 289 288 287 285 288 289 289 290 292 293 294 293 293 293 291 290 290 288 285 285 287 293 296 288 286 288 288 285 283 284 287 291 295 296 298 299 298 299 302 303 304 nan nan nan nan nan nan nan nan 300 nan nan nan nan nan nan nan
nan nan nan nan 259 nan nan nan nan nan nan nan nan nan nan nan nan 258 nan nan nan nan nan nan nan 277 280 282 279 284 286 288 286 286 286 288 288 288 289 289 290 290 290 290 293 295 295 294 291 290 290 290 287 284 284 286 286 283 283 287 292 294 295 297 297 298 300 302 304 305 304 305 308 nan nan nan nan nan nan nan nan nan nan nan nan nan nan
nan nan nan nan nan nan nan nan nan nan nan nan nan nan nan nan nan nan nan nan nan nan nan nan nan 272 282 281 284 284 288 288 286 289 290 292 292 291 291 291 292 294 296 296 295 294 292 289 291 294 291 288 283 281 281 282 282 281 284 288 290 294 297 294 296 300 301 302 302 303 305 305 305 306 307 307 nan nan 306 306 nan nan nan nan nan nan nan
nan nan nan nan nan nan nan nan nan nan nan nan nan nan nan nan nan nan nan nan nan nan nan nan nan nan 274 279 284 286 287 287 288 289 289 290 289 290 292 296 296 296 294 293 289 289 288 287 286 285 284 282 280 279 279 278 278 280 284 287 287 287 288 294 294 294 295 297 299 302 303 302 302 302 304 307 nan nan nan nan nan nan nan nan nan nan nan
nan nan nan nan nan nan nan nan nan nan nan nan nan nan nan nan nan nan nan nan nan nan nan nan nan nan 270 275 282 286 286 288 288 289 288 286 283 285 291 294 293 293 289 287 287 288 289 290 291 290 287 282 278 276 275 274 277 283 286 287 286 287 289 289 290 290 291 293 295 298 299 299 298 299 301 302 301 300 nan nan nan nan nan nan nan nan nan
nan nan nan nan nan nan nan nan nan nan nan nan nan nan nan nan nan nan nan nan nan nan nan nan nan nan nan nan 273 283 287 288 289 286 283 282 283 283 286 285 282 280 278 279 280 281 282 284 286 284 282 278 273 270 271 274 281 285 283 282 285 288 288 290 290 291 292 295 296 296 297 298 298 299 299 298 297 296 nan nan nan nan nan nan nan nan nan
nan nan nan nan nan nan nan nan nan nan nan nan nan nan nan nan nan nan nan nan nan nan nan nan nan nan nan nan 271 275 282 284 283 281 280 280 279 278 277 279 282 283 285 286 286 284 283 284 284 284 277 267 263 265 271 281 286 285 284 285 286 286 285 287 291 293 295 297 298 298 298 297 298 299 299 nan nan nan nan nan nan nan nan nan nan nan nan
nan nan nan nan nan nan nan nan nan nan nan nan nan nan nan nan nan nan nan nan nan nan nan nan 269 268 269 268 271 273 275 277 278 278 278 276 274 274 274 275 278 281 283 282 282 287 291 290 287 281 271 263 260 267 280 288 288 287 287 287 287 286 287 290 292 294 296 297 297 296 297 298 298 nan nan nan nan nan nan nan nan nan nan nan nan nan nan
nan nan nan nan nan nan nan nan nan nan nan nan nan nan nan nan nan nan nan nan nan nan nan nan nan nan 273 273 272 269 269 272 275 277 278 276 273 271 271 272 275 278 277 275 274 269 279 289 288 276 261 257 267 280 284 287 288 288 288 287 288 289 289 289 291 294 294 294 295 296 296 298 297 nan nan nan nan nan nan nan nan nan nan nan nan nan nan
nan nan nan nan nan nan nan nan nan nan nan nan nan nan nan nan nan nan nan nan nan nan nan nan nan nan 267 274 275 276 276 274 272 271 270 272 274 274 273 273 272 271 272 274 274 277 281 289 283 267 266 278 287 289 289 289 290 290 289 288 288 288 288 288 288 289 290 291 292 293 293 295 294 nan nan nan nan nan nan nan nan nan nan nan nan nan nan
nan nan nan nan nan nan nan nan nan nan nan nan nan nan nan nan nan nan nan nan nan nan nan nan nan nan 273 275 274 274 274 275 275 274 274 275 275 275 275 276 276 277 276 275 276 nan 284 276 268 270 279 287 288 286 286 286 287 286 287 287 287 286 286 288 289 289 290 291 291 291 291 292 nan 290 288 nan nan nan nan nan nan nan nan nan nan nan nan
nan nan nan nan nan nan nan nan nan nan nan nan nan nan nan nan nan nan nan nan nan nan nan nan nan nan 271 277 276 276 274 273 273 273 275 274 274 273 273 274 275 275 276 278 280 284 284 279 272 272 279 285 285 283 282 284 286 287 287 286 288 288 288 288 289 289 289 291 291 290 290 292 291 289 nan nan nan nan nan nan nan nan nan nan nan nan nan
nan nan nan nan nan nan nan nan nan nan nan nan nan nan nan nan nan nan nan nan nan nan nan nan nan nan nan 277 275 274 273 274 275 277 279 279 279 279 279 279 279 280 280 279 278 277 276 276 274 275 280 285 286 285 284 284 288 286 286 289 291 291 291 nan nan nan nan nan nan nan nan nan nan nan nan nan nan nan nan nan nan nan nan nan nan nan nan
nan nan nan nan nan nan nan nan nan nan nan nan nan nan nan nan nan nan nan nan nan nan nan nan nan nan 267 276 277 278 278 277 278 279 280 279 278 276 274 274 274 276 276 277 277 275 nan 278 279 281 287 nan nan 289 288 285 285 288 290 292 nan nan nan nan nan nan nan nan nan nan nan nan nan nan nan nan nan nan nan nan nan nan nan nan nan nan nan
nan nan nan nan nan nan nan nan nan nan nan nan nan nan nan nan nan nan nan nan nan nan nan nan nan nan 269 280 282 282 282 280 278 275 274 273 272 273 273 273 273 274 276 277 278 280 281 282 284 286 nan nan nan nan nan nan nan nan nan nan nan nan nan nan nan nan nan nan nan nan nan nan nan nan nan nan nan nan nan nan nan nan nan nan nan nan nan
nan nan nan nan nan nan nan nan nan nan nan nan nan nan nan nan nan nan nan nan nan nan 266 nan nan nan 268 277 285 283 281 276 272 270 271 272 273 273 274 272 274 278 281 281 280 281 285 288 287 288 nan nan nan nan nan nan nan nan nan 293 nan 298 nan nan nan nan nan nan nan nan nan nan nan nan nan nan nan nan nan nan nan nan nan nan nan nan nan
nan nan nan nan nan nan nan nan nan nan nan nan nan nan nan nan nan nan nan nan nan 271 272 273 nan nan nan 276 277 279 276 274 273 274 276 274 274 276 278 281 280 279 280 282 283 285 285 286 nan nan nan nan nan 287 nan nan nan nan nan nan nan nan nan nan nan nan nan nan nan nan nan nan nan nan nan nan nan nan nan nan nan nan nan nan nan nan nan
nan nan nan nan nan nan nan nan nan nan nan nan nan nan nan nan 273 273 272 271 269 268 269 270 268 272 273 nan 276 273 269 271 276 280 282 284 285 287 286 286 282 283 284 285 287 286 nan nan nan nan nan nan nan nan nan nan nan nan nan nan nan nan nan nan nan nan nan nan nan nan nan nan nan nan nan nan nan nan nan nan nan nan nan nan nan nan nan
nan nan nan nan nan nan nan nan nan nan nan nan nan nan 281 282 281 278 275 272 267 264 262 263 260 259 nan nan 256 258 266 275 283 285 283 281 282 282 283 284 282 287 289 nan nan nan nan nan nan nan nan nan nan nan nan nan nan nan nan nan nan nan nan nan nan nan nan nan nan nan nan nan nan nan nan nan nan nan nan nan nan nan nan nan nan nan nan
nan nan nan nan nan nan nan nan nan nan nan nan nan 295 296 297 296 290 281 272 266 258 253 251 254 255 252 nan nan 252 264 271 279 280 279 277 272 275 282 286 nan 289 292 nan nan nan nan nan nan nan nan nan nan nan nan nan nan nan nan nan nan nan nan nan nan nan nan nan nan nan nan nan nan nan nan nan nan nan nan nan nan nan nan nan nan nan nan
nan nan nan nan nan nan nan nan nan nan nan nan nan nan 308 307 309 309 297 280 269 261 253 249 249 nan nan nan 260 268 273 278 278 279 282 281 283 284 284 286 286 nan nan nan nan nan nan nan nan nan nan nan nan nan nan nan nan nan nan nan nan nan nan nan nan nan nan nan nan nan nan nan nan nan nan nan nan nan nan nan nan nan nan nan nan nan nan
nan nan nan nan nan nan nan nan nan 314 313 309 nan 325 327 323 327 334 338 330 305 278 nan 244 238 239 236 251 264 266 267 267 271 275 278 287 289 290 293 290 287 287 300 nan nan nan nan nan nan nan nan nan nan nan nan nan nan nan nan nan nan nan nan nan nan nan nan nan nan nan nan nan nan nan nan nan nan nan nan nan nan nan nan nan nan nan nan
291 289 288 289 nan nan 307 313 319 319 323 324 nan nan 347 343 339 345 338 338 341 338 307 217 216 229 241 253 264 272 270 266 263 270 275 275 285 291 295 298 299 308 301 nan nan nan nan nan nan nan nan nan nan nan nan nan nan nan nan nan nan nan nan nan nan nan nan nan nan nan nan nan nan nan nan nan nan nan nan nan nan nan nan nan nan nan nan
294 291 286 290 294 302 314 nan 320 nan nan nan nan 356 3 4 332 320 329 336 350 351 351 332 288 265 264 264 266 269 273 278 274 277 282 nan nan nan nan nan nan 308 nan nan nan nan nan nan nan nan nan nan nan nan nan nan nan nan nan nan nan nan nan nan nan nan nan nan nan nan nan nan nan nan nan nan nan nan nan nan nan nan nan nan nan nan nan
301 294 293 293 299 309 314 315 318 324 335 350 346 345 350 347 356 337 328 335 344 350 355 355 336 307 294 286 284 276 280 285 288 290 291 nan nan nan nan nan nan nan nan nan nan nan nan nan nan nan nan nan nan nan nan nan nan nan nan nan nan nan nan nan nan nan nan nan nan nan nan nan nan nan nan nan nan nan nan nan nan nan nan nan nan nan nan
299 294 294 295 302 312 318 312 313 320 334 324 320 333 336 336 338 335 334 333 336 337 339 342 324 313 308 297 293 289 286 293 293 293 292 nan nan nan nan nan nan nan nan nan nan nan nan nan nan nan nan nan nan nan nan nan nan nan nan nan nan nan nan nan nan nan nan nan nan nan nan nan nan nan nan nan nan nan nan nan nan nan nan nan nan nan nan
305 308 317 317 318 320 312 315 319 317 311 313 323 328 330 329 326 322 332 329 321 320 319 316 306 299 294 297 299 299 nan 302 299 302 299 nan nan nan nan nan nan nan nan nan nan nan nan nan nan nan nan nan nan nan nan nan nan nan nan nan nan nan nan nan nan nan nan nan nan nan nan nan nan nan nan nan nan nan nan nan nan nan nan nan nan nan nan
322 325 329 329 328 318 310 309 311 316 319 327 324 320 319 319 321 315 313 314 310 311 308 305 300 301 299 300 304 311 306 304 304 303 304 nan nan nan nan nan nan nan nan nan nan nan nan nan nan nan nan nan nan nan nan nan nan nan nan nan nan nan nan nan nan nan nan nan nan nan nan nan nan nan nan nan nan nan nan nan nan nan nan nan nan nan nan